Aérodrome :
LOGIN :

S'inscrire | Disclaimer

   EN    FR    IT 

 










Légende :    VFR   VFR Marginal   IFR   IFR Intensif   IFR Très Intensif
Visi : 
Plafond : 
>= 8 km
>= 3000ft
5 à 8 km
1000 à 3000 ft
1500m à 5 km
500 à 1000 ft
800 à 1500m
200 à 500 ft
< 800m
< 200 ft
Symboles :   Orages  Brouillard  Fortes neiges  Fortes précipitations  Vent > 20 kt
SIGMETs :   Divers  Orages  Givrage  Turbulence  Onde Orograph.  Cendres Volcan.






- Altitude de l'aérodrome : 325 ft
- Code IATA : POX


LFPT - Pontoise

DERNIER METAR :
  • 150400Z AUTO 24018KT 9999 FEW022/// BKN029/// BKN036/// ///CB 10/07 Q0997

METARs EXPIRÉS :
  • 150330Z AUTO 23021KT 9999 SCT021/// BKN028/// BKN037/// ///TCU 10/07 Q0997
  • 150300Z AUTO 23020KT 9999 SCT022/// BKN029/// BKN047/// ///TCU 11/07 Q0996
  • 150230Z AUTO 23020KT 9999 BKN025 BKN030 BKN064 11/06 Q0996
  • 150200Z AUTO 23018KT 9999 SCT025 BKN031 BKN039 11/07 Q0996
  • 150130Z AUTO 23022KT 9999 BKN022 OVC029 11/07 Q0996

TAF N/A
ATIS : +33 1 30 30 52 08



MET'MAP, la Météo Aéronautique d'un coup d'oeil ! - Copyright ORBIFLY Décembre 2007 - Disclaimer

ORBIFLY MET'MAP TEAM :

Programmation & Développement : Alexandra Zaïnal
Sur une idée originale de : Baudouin d'Aumeries
Assistance à la programmation : Marc-Olivier Méhu
Soutien technique & logistique : Manuel Goepfert

Contact : metmap@orbifly.com




SOURCES & CREDITS :

   NOAA